Погода в Четырбоках

Украина / Хмельницкая область     50°01′45″N   27°01′40″E
темп.,
°C
ветер,
м/с
пор.,
м/с
влажн.,
%
обл.,
%
осадки,
мм/ч
давл.,
гПа
погр.,
м
5 августа, чт
чт500:00+15ююв118439 0.0 101511
03:00+16юв2283100 0.0 101426
06:00+15ю2289100 0.0 101316
09:00+20юв1277100 0.0 1012225
12:00+25юв445226 0.0 10111131
15:00+27ююв4544100 0.1 10091746
18:00+28юв464597 0.0 10071915
21:00+23вюв4969100 0.1 1005196
6 августа, пт
пт600:00+19юв499455 21.3 1004240
03:00+17ю3995100 21.4 1002212
06:00+17ююз279896 1.1 1002206
09:00+20ююз458410 1.8 1002355
12:00+23зюз456429 1.4 10031303
15:00+22з6663100 2.3 10041184
18:00+21з786546 0.0 10041112
21:00+18зсз4778100 0.0 1007502
7 августа, сб
сб700:00+15з49866 0.0 1008478
03:00+12зюз38944 0.0 1009193
06:00+12зюз39950 0.0 1010217
09:00+17з47700 0.0 1011521
12:00+22з47532 0.0 10111548
15:00+22зюз3661100 0.0 1011368
18:00+23з465918 0.2 1011919
21:00+18зсз22800 0.4 101320
8 августа, вс
вс800:00+17юз22791 0.0 101413
03:00+16ю22845 0.0 101422
06:00+15ююв348696 0.0 101551
09:00+21ю4764100 0.0 1015328
12:00+25ю56515 0.0 10151158
15:00+27ю56442 0.0 10151426
18:00+27ю56525 0.0 1015956
21:00+21ююв49725 0.0 1016141
9 августа, пн
пн900:00+19ююв4117394 0.0 1016180
03:00+18ююв4117294 0.0 1016199
06:00+18ю412713 0.0 1016247
09:00+21юв446694 0.0 1016170
12:00+23ю356698 0.1 1016245
15:00+26з235383 0.1 10171096
18:00+25сз556695 0.0 1018854
21:00+20сз598612 0.3 1019309